GBPCK BIKF-BGGH

Flight info

Callsign GBPCK
Flight time N/A
Altitude 43000
Route SORIR2D SORIR DCT SOPEN DCT SABAG DCT NAPIB DCT INBAN DCT GETDA
Aircraft C750/M-SBDE3FGHRWXY/S

Departure

Time N/A
Airport Keflavik International Airport (BIKF)

Arrival

Time 2026-05-03 20:57
Airport Nuuk International Airport (BGGH)
Time Latitude Longitude Altitude Speed Heading
2026-05-03 20:15 65.15563 -43.03576 43105 ft 494 kts 268°
2026-05-03 20:15 65.15219 -43.19907 43104 ft 494 kts 268°
2026-05-03 20:16 65.14858 -43.36201 43113 ft 494 kts 268°
2026-05-03 20:16 65.14479 -43.52505 43118 ft 494 kts 268°
2026-05-03 20:17 65.14082 -43.68803 43093 ft 494 kts 268°
2026-05-03 20:17 65.13649 -43.85047 43115 ft 490 kts 267°
2026-05-03 20:18 65.13171 -44.01103 43135 ft 492 kts 267°
2026-05-03 20:18 65.12695 -44.17330 43143 ft 491 kts 267°
2026-05-03 20:19 65.12185 -44.33546 43144 ft 492 kts 266°
2026-05-03 20:19 65.11669 -44.49729 43150 ft 492 kts 266°
2026-05-03 20:20 65.11128 -44.65929 43163 ft 492 kts 266°
2026-05-03 20:20 65.10574 -44.82123 43150 ft 493 kts 266°
2026-05-03 20:21 65.10001 -44.98288 43160 ft 495 kts 266°
2026-05-03 20:21 65.09408 -45.14553 43166 ft 494 kts 266°
2026-05-03 20:22 65.08798 -45.30772 43174 ft 494 kts 265°
2026-05-03 20:22 65.08168 -45.47043 43179 ft 497 kts 265°
2026-05-03 20:23 65.07518 -45.63368 43187 ft 497 kts 265°
2026-05-03 20:23 65.06851 -45.79661 43186 ft 496 kts 265°
2026-05-03 20:24 65.06167 -45.95928 43176 ft 497 kts 265°
2026-05-03 20:24 65.05463 -46.12244 43177 ft 498 kts 265°
2026-05-03 20:25 65.04742 -46.28552 43177 ft 497 kts 264°
2026-05-03 20:25 65.04004 -46.44825 43177 ft 497 kts 264°
2026-05-03 20:26 65.03250 -46.61019 43190 ft 498 kts 264°
2026-05-03 20:26 65.02474 -46.77331 43191 ft 498 kts 264°
2026-05-03 20:27 65.01680 -46.93619 43190 ft 498 kts 264°
2026-05-03 20:27 65.00870 -47.09886 43196 ft 498 kts 264°
2026-05-03 20:28 65.00041 -47.26156 43191 ft 498 kts 264°
2026-05-03 20:28 64.99196 -47.42404 43190 ft 498 kts 263°
2026-05-03 20:29 64.98338 -47.58541 43188 ft 498 kts 263°
2026-05-03 20:29 64.97457 -47.74764 43192 ft 498 kts 263°
2026-05-03 20:30 64.96557 -47.91004 43189 ft 499 kts 263°
2026-05-03 20:30 64.95641 -48.07215 43183 ft 499 kts 263°
2026-05-03 20:31 64.94704 -48.23456 43184 ft 499 kts 263°
2026-05-03 20:31 64.93757 -48.39568 42459 ft 488 kts 263°
2026-05-03 20:31 64.93290 -48.47390 41833 ft 476 kts 262°
2026-05-03 20:32 64.92831 -48.55008 41233 ft 462 kts 262°
2026-05-03 20:32 64.92384 -48.62389 40644 ft 447 kts 262°
2026-05-03 20:32 64.91946 -48.69540 40081 ft 434 kts 262°
2026-05-03 20:32 64.91518 -48.76483 39532 ft 421 kts 262°
2026-05-03 20:33 64.91098 -48.83227 38996 ft 411 kts 262°
2026-05-03 20:33 64.90685 -48.89833 38407 ft 404 kts 262°
2026-05-03 20:33 64.90274 -48.96337 37888 ft 398 kts 262°
2026-05-03 20:33 64.89865 -49.02774 37380 ft 399 kts 262°
2026-05-03 20:34 64.89453 -49.09225 36852 ft 409 kts 262°
2026-05-03 20:34 64.89019 -49.15937 36294 ft 419 kts 262°
2026-05-03 20:34 64.88576 -49.22765 35720 ft 423 kts 261°
2026-05-03 20:34 64.88128 -49.29619 35157 ft 423 kts 261°
2026-05-03 20:35 64.87679 -49.36441 34598 ft 421 kts 261°
2026-05-03 20:35 64.87228 -49.43229 34116 ft 418 kts 261°
2026-05-03 20:35 64.86777 -49.49988 33569 ft 418 kts 261°
2026-05-03 20:35 64.86323 -49.56734 33014 ft 420 kts 261°
2026-05-03 20:36 64.85861 -49.63537 32455 ft 422 kts 261°
2026-05-03 20:36 64.85396 -49.70359 31895 ft 423 kts 261°
2026-05-03 20:36 64.84924 -49.77213 31333 ft 425 kts 261°
2026-05-03 20:36 64.84450 -49.84068 30773 ft 426 kts 261°
2026-05-03 20:37 64.83972 -49.90935 30200 ft 425 kts 261°
2026-05-03 20:37 64.83472 -49.97737 29605 ft 419 kts 259°
2026-05-03 20:37 64.82531 -50.04068 29067 ft 416 kts 247°
2026-05-03 20:37 64.81292 -50.10202 28542 ft 416 kts 246°
2026-05-03 20:38 64.80051 -50.16335 27990 ft 414 kts 246°
2026-05-03 20:38 64.78832 -50.22418 27452 ft 410 kts 246°
2026-05-03 20:38 64.77618 -50.28452 26920 ft 407 kts 246°
2026-05-03 20:38 64.76406 -50.34413 26379 ft 404 kts 246°
2026-05-03 20:39 64.75312 -50.39779 25904 ft 400 kts 246°
2026-05-03 20:39 64.74119 -50.45639 25379 ft 397 kts 246°
2026-05-03 20:39 64.72931 -50.51459 24863 ft 394 kts 246°
2026-05-03 20:39 64.71749 -50.57226 24351 ft 392 kts 246°
2026-05-03 20:40 64.70572 -50.62948 23834 ft 389 kts 246°
2026-05-03 20:40 64.69400 -50.68630 23280 ft 385 kts 246°
2026-05-03 20:40 64.68242 -50.74241 22779 ft 382 kts 246°
2026-05-03 20:40 64.67088 -50.79813 22261 ft 380 kts 245°
2026-05-03 20:41 64.65934 -50.85364 21782 ft 381 kts 245°
2026-05-03 20:41 64.64781 -50.90898 21283 ft 378 kts 245°
2026-05-03 20:41 64.63631 -50.96405 20790 ft 375 kts 245°
2026-05-03 20:41 64.62491 -51.01849 20298 ft 372 kts 245°
2026-05-03 20:42 64.61355 -51.07260 19814 ft 370 kts 245°
2026-05-03 20:42 64.60225 -51.12630 19327 ft 368 kts 245°
2026-05-03 20:42 64.59100 -51.17961 18846 ft 365 kts 245°
2026-05-03 20:42 64.57982 -51.23245 18341 ft 363 kts 245°
2026-05-03 20:43 64.56868 -51.28498 17737 ft 362 kts 245°
2026-05-03 20:43 64.55745 -51.33683 17198 ft 354 kts 243°
2026-05-03 20:43 64.54237 -51.38177 16718 ft 356 kts 226°
2026-05-03 20:43 64.52219 -51.41523 16255 ft 359 kts 211°
2026-05-03 20:44 64.49890 -51.43398 15791 ft 363 kts 195°
2026-05-03 20:44 64.47395 -51.44241 15328 ft 362 kts 191°
2026-05-03 20:44 64.44913 -51.45001 14860 ft 359 kts 191°
2026-05-03 20:44 64.42450 -51.45794 14373 ft 356 kts 192°
2026-05-03 20:45 64.40009 -51.46594 13906 ft 353 kts 192°
2026-05-03 20:45 64.37583 -51.47370 13418 ft 350 kts 191°
2026-05-03 20:45 64.35177 -51.48131 12953 ft 347 kts 191°
2026-05-03 20:45 64.32799 -51.48888 12496 ft 344 kts 191°
2026-05-03 20:46 64.30445 -51.49642 12045 ft 341 kts 191°
2026-05-03 20:46 64.28095 -51.50393 11585 ft 339 kts 191°
2026-05-03 20:46 64.25772 -51.51129 11147 ft 336 kts 191°
2026-05-03 20:46 64.23498 -51.51843 10712 ft 322 kts 191°
2026-05-03 20:47 64.21338 -51.52524 10288 ft 304 kts 191°
2026-05-03 20:47 64.19307 -51.53168 9888 ft 286 kts 191°
2026-05-03 20:47 64.17415 -51.53775 9501 ft 270 kts 191°
2026-05-03 20:47 64.15589 -51.54350 9148 ft 262 kts 191°
2026-05-03 20:48 64.13802 -51.54894 8850 ft 257 kts 190°
2026-05-03 20:48 64.12028 -51.55436 8401 ft 254 kts 190°
2026-05-03 20:48 64.10344 -51.55966 8086 ft 240 kts 190°
2026-05-03 20:48 64.08676 -51.56533 7428 ft 243 kts 190°
2026-05-03 20:49 64.07016 -51.57057 6905 ft 239 kts 189°
2026-05-03 20:49 64.05375 -51.57555 6333 ft 237 kts 189°
2026-05-03 20:49 64.03830 -51.58029 5970 ft 210 kts 189°
2026-05-03 20:49 64.02429 -51.58469 5620 ft 199 kts 189°
2026-05-03 20:50 64.01057 -51.58903 5021 ft 201 kts 189°
2026-05-03 20:50 63.99726 -51.59370 4680 ft 178 kts 192°
2026-05-03 20:50 63.98644 -51.60684 4247 ft 178 kts 219°
2026-05-03 20:50 63.97945 -51.62978 3825 ft 180 kts 244°
2026-05-03 20:51 63.97787 -51.65835 3386 ft 187 kts 270°
2026-05-03 20:51 63.98146 -51.68756 2988 ft 193 kts 283°
2026-05-03 20:51 63.98548 -51.71507 2996 ft 174 kts 282°
2026-05-03 20:51 63.98900 -51.74027 2991 ft 163 kts 281°
2026-05-03 20:52 63.99236 -51.76463 2986 ft 160 kts 281°
2026-05-03 20:52 63.99827 -51.78659 2977 ft 168 kts 311°
2026-05-03 20:52 64.00845 -51.80074 2982 ft 177 kts 340°
2026-05-03 20:52 64.02076 -51.80246 2986 ft 180 kts 12°
2026-05-03 20:53 64.03269 -51.79410 3018 ft 180 kts 21°
2026-05-03 20:53 64.04455 -51.78497 3013 ft 184 kts 21°
2026-05-03 20:53 64.05671 -51.77602 3003 ft 183 kts 20°
2026-05-03 20:53 64.06876 -51.76735 2874 ft 182 kts 21°
2026-05-03 20:54 64.08073 -51.75872 2596 ft 174 kts 21°
2026-05-03 20:54 64.10147 -51.74392 2117 ft 143 kts 22°
2026-05-03 20:54 64.11069 -51.73730 1914 ft 135 kts 23°
2026-05-03 20:55 64.11947 -51.73097 1730 ft 130 kts 23°
2026-05-03 20:55 64.12811 -51.72473 1537 ft 129 kts 22°
2026-05-03 20:55 64.13658 -51.71862 1338 ft 126 kts 22°
2026-05-03 20:55 64.14492 -51.71259 1137 ft 125 kts 21°
2026-05-03 20:56 64.15318 -51.70666 938 ft 124 kts 20°
2026-05-03 20:56 64.16130 -51.70087 738 ft 121 kts 20°
2026-05-03 20:56 64.16908 -51.69536 605 ft 114 kts 17°
2026-05-03 20:56 64.17671 -51.68953 407 ft 117 kts 17°
2026-05-03 20:57 64.18449 -51.68399 264 ft 110 kts 17°
2026-05-03 20:57 64.18789 -51.68142 271 ft 39 kts 18°
2026-05-03 20:57 64.18913 -51.68030 276 ft 1 kts 39°
2026-05-03 20:57 64.18921 -51.68011 276 ft 2 kts 51°
2026-05-03 20:58 64.18934 -51.67971 276 ft 4 kts 53°
2026-05-03 20:58 64.18967 -51.67919 277 ft 9 kts 21°
2026-05-03 20:58 64.19042 -51.67858 277 ft 12 kts 22°
2026-05-03 20:58 64.19076 -51.67728 277 ft 10 kts 99°
2026-05-03 20:59 64.19061 -51.67563 277 ft 11 kts 94°
2026-05-03 20:59 64.19091 -51.67471 277 ft 9 kts 14°
2026-05-03 20:59 64.19134 -51.67498 277 ft 4 kts 333°
2026-05-03 20:59 64.19143 -51.67473 277 ft 0 kts 110°